• In Uzbekistan
  • List of Countries
  • For 7 days
  • Water Temperature
  • Weather Map
  • Weather Widgets
  • user-avatar
    Login

    Hourly Weather Prutz

    Today, 27 February, Thursday

    Time Temperature Precipitation Wind Pressure Humidity
    00:00 -10°C° 0.3 mm 2 mps 623 mmHg 95%
    01:00 -10°C° 0.3 mm 2 mps 623 mmHg 95%
    02:00 -12°C° 0.1 mm 2 mps 623 mmHg 94%
    03:00 -12°C° 0.1 mm 2 mps 623 mmHg 93%
    04:00 -12°C° 0.1 mm 2 mps 623 mmHg 93%
    05:00 -12°C° 0.1 mm 2 mps 623 mmHg 92%
    06:00 -12°C° 0.1 mm 2 mps 623 mmHg 92%
    07:00 -12°C° 0.1 mm 2 mps 624 mmHg 91%
    08:00 -10°C° 0 mm 2 mps 624 mmHg 84%
    09:00 -8°C° 0 mm 2 mps 624 mmHg 77%
    10:00 -7°C° 0 mm 2 mps 624 mmHg 70%
    11:00 -7°C° 0 mm 3 mps 624 mmHg 68%
    12:00 -6°C° 0 mm 3 mps 623 mmHg 65%
    13:00 -5°C° 0 mm 4 mps 623 mmHg 62%
    14:00 -5°C° 0.4 mm 4 mps 622 mmHg 71%
    15:00 -7°C° 0.4 mm 5 mps 620 mmHg 79%
    16:00 -8°C° 0.4 mm 5 mps 619 mmHg 88%
    17:00 -8°C° 0.7 mm 5 mps 619 mmHg 88%
    18:00 -8°C° 0.7 mm 5 mps 619 mmHg 88%
    19:00 -10°C° 0.7 mm 5 mps 618 mmHg 88%
    20:00 -10°C° 0.6 mm 5 mps 619 mmHg 89%
    21:00 -9°C° 0.6 mm 4 mps 619 mmHg 91%
    22:00 -9°C° 0.6 mm 4 mps 620 mmHg 92%
    23:00 -9°C° 0.8 mm 4 mps 621 mmHg 93%

    Tomorrow, 28 February, Friday

    Time Temperature Precipitation Wind Pressure Humidity
    00:00 -9°C° 0.8 mm 4 mps 622 mmHg 93%
    01:00 -8°C° 0.8 mm 3 mps 623 mmHg 94%
    02:00 -8°C° 0.6 mm 3 mps 623 mmHg 94%
    03:00 -9°C° 0.6 mm 3 mps 624 mmHg 95%
    04:00 -9°C° 0.6 mm 3 mps 624 mmHg 95%
    05:00 -9°C° 0.7 mm 3 mps 625 mmHg 95%
    06:00 -10°C° 0.7 mm 3 mps 626 mmHg 95%
    07:00 -9°C° 0.7 mm 2 mps 627 mmHg 95%
    08:00 -8°C° 0.2 mm 2 mps 628 mmHg 89%
    09:00 -7°C° 0.2 mm 2 mps 629 mmHg 83%
    10:00 -6°C° 0.2 mm 2 mps 630 mmHg 77%
    11:00 -6°C° 0 mm 2 mps 630 mmHg 70%
    12:00 -5°C° 0 mm 2 mps 630 mmHg 63%
    13:00 -2°C° 0 mm 1 mps 630 mmHg 57%
    14:00 -2°C° 0 mm 1 mps 630 mmHg 57%
    15:00 -1°C° 0 mm 1 mps 630 mmHg 58%
    16:00 0°C° 0 mm 1 mps 630 mmHg 59%
    17:00 -4°C° 0 mm 2 mps 629 mmHg 56%
    18:00 -6°C° 0 mm 2 mps 629 mmHg 52%
    19:00 -7°C° 0 mm 2 mps 628 mmHg 49%
    20:00 -7°C° 0 mm 2 mps 629 mmHg 50%
    21:00 -6°C° 0 mm 2 mps 629 mmHg 50%
    22:00 -6°C° 0 mm 2 mps 629 mmHg 50%
    23:00 -7°C° 0 mm 3 mps 629 mmHg 52%

    Day after tomorrow, 29 February, Saturday

    Time Temperature Precipitation Wind Pressure Humidity
    00:00 -7°C° 0 mm 3 mps 628 mmHg 54%
    01:00 -7°C° 0 mm 3 mps 628 mmHg 55%
    02:00 -7°C° 0 mm 3 mps 628 mmHg 59%
    03:00 -6°C° 0 mm 3 mps 627 mmHg 62%
    04:00 -6°C° 0 mm 3 mps 627 mmHg 65%
    05:00 -6°C° 0 mm 3 mps 627 mmHg 66%
    06:00 -7°C° 0 mm 4 mps 627 mmHg 68%
    07:00 -5°C° 0 mm 4 mps 626 mmHg 69%
    08:00 -4°C° 0 mm 4 mps 626 mmHg 71%
    09:00 -3°C° 0 mm 4 mps 626 mmHg 74%
    10:00 -2°C° 0 mm 4 mps 626 mmHg 77%
    11:00 -1°C° 0 mm 4 mps 625 mmHg 79%
    12:00 -1°C° 0 mm 4 mps 625 mmHg 82%
    13:00 0°C° 0 mm 5 mps 624 mmHg 85%
    14:00 0°C° 0 mm 4 mps 624 mmHg 84%
    15:00 -1°C° 0 mm 4 mps 624 mmHg 83%
    16:00 -1°C° 0 mm 4 mps 623 mmHg 83%
    17:00 -3°C° 0 mm 4 mps 623 mmHg 83%
    18:00 -4°C° 0 mm 4 mps 622 mmHg 84%
    19:00 -7°C° 0 mm 4 mps 622 mmHg 84%
    20:00 -7°C° 0 mm 4 mps 622 mmHg 85%
    21:00 -7°C° 0 mm 4 mps 622 mmHg 86%
    22:00 -6°C° 0 mm 3 mps 622 mmHg 86%
    23:00 -6°C° 0 mm 3 mps 622 mmHg 87%

    1 March, Sunday

    Time Temperature Precipitation Wind Pressure Humidity
    00:00 -6°C° 0 mm 3 mps 622 mmHg 87%
    01:00 -5°C° 0 mm 2 mps 622 mmHg 88%
    02:00 -5°C° 0.1 mm 2 mps 622 mmHg 89%
    03:00 -5°C° 0.1 mm 2 mps 621 mmHg 90%
    04:00 -5°C° 0.1 mm 2 mps 621 mmHg 91%
    05:00 -4°C° 0.4 mm 2 mps 621 mmHg 92%
    06:00 -2°C° 0.4 mm 1 mps 621 mmHg 94%
    07:00 -2°C° 0.4 mm 1 mps 621 mmHg 95%
    08:00 -1°C° 0.3 mm 1 mps 621 mmHg 94%
    09:00 0°C° 0.3 mm 1 mps 622 mmHg 93%
    10:00 +2°C° 0.3 mm 1 mps 622 mmHg 92%
    11:00 +2°C° 0.1 mm 1 mps 622 mmHg 93%
    12:00 +2°C° 0.1 mm 2 mps 622 mmHg 94%
    13:00 +2°C° 0.1 mm 2 mps 622 mmHg 95%
    14:00 +2°C° 0.2 mm 2 mps 621 mmHg 94%
    15:00 +3°C° 0.2 mm 1 mps 621 mmHg 93%
    16:00 +3°C° 0.2 mm 1 mps 620 mmHg 92%
    17:00 +1°C° 0.1 mm 2 mps 620 mmHg 92%
    18:00 -1°C° 0.1 mm 2 mps 619 mmHg 91%
    19:00 -2°C° 0.1 mm 3 mps 619 mmHg 91%
    20:00 -4°C° 0 mm 3 mps 618 mmHg 90%
    21:00 -4°C° 0 mm 3 mps 618 mmHg 89%
    22:00 -5°C° 0 mm 3 mps 618 mmHg 88%
    23:00 -5°C° 0.1 mm 3 mps 618 mmHg 89%

    2 March, Monday

    Time Temperature Precipitation Wind Pressure Humidity
    00:00 -5°C° 0.1 mm 2 mps 618 mmHg 89%
    01:00 -5°C° 0.1 mm 2 mps 618 mmHg 90%
    02:00 -5°C° 0.8 mm 2 mps 618 mmHg 92%
    03:00 -5°C° 0.8 mm 2 mps 618 mmHg 94%
    04:00 -5°C° 0.8 mm 2 mps 619 mmHg 96%
    05:00 -3°C° 0.1 mm 1 mps 619 mmHg 95%
    06:00 -4°C° 0.1 mm 1 mps 618 mmHg 94%
    07:00 -4°C° 0.1 mm 1 mps 618 mmHg 94%
    08:00 -3°C° 0 mm 1 mps 619 mmHg 89%
    09:00 -3°C° 0 mm 0 mps 619 mmHg 83%
    10:00 -2°C° 0 mm 0 mps 619 mmHg 78%
    11:00 0°C° 0 mm 1 mps 619 mmHg 79%
    12:00 +1°C° 0 mm 1 mps 619 mmHg 79%
    13:00 +1°C° 0 mm 1 mps 619 mmHg 80%
    14:00 +1°C° 0 mm 1 mps 619 mmHg 80%
    15:00 +2°C° 0 mm 1 mps 619 mmHg 81%
    16:00 +2°C° 0 mm 1 mps 619 mmHg 82%
    17:00 0°C° 0 mm 1 mps 619 mmHg 85%
    18:00 -2°C° 0 mm 1 mps 618 mmHg 89%
    19:00 -6°C° 0 mm 2 mps 618 mmHg 92%
    20:00 -6°C° 0 mm 2 mps 618 mmHg 90%
    21:00 -6°C° 0 mm 2 mps 618 mmHg 88%
    22:00 -6°C° 0 mm 2 mps 619 mmHg 86%
    23:00 -6°C° 0 mm 2 mps 619 mmHg 85%

    3 March, Tuesday

    Time Temperature Precipitation Wind Pressure Humidity
    00:00 -6°C° 0 mm 2 mps 619 mmHg 85%
    01:00 -6°C° 0 mm 2 mps 619 mmHg 85%
    02:00 -6°C° 0 mm 2 mps 619 mmHg 83%
    03:00 -4°C° 0 mm 1 mps 619 mmHg 81%
    04:00 -4°C° 0 mm 1 mps 619 mmHg 79%
    05:00 -4°C° 0.1 mm 1 mps 620 mmHg 83%
    06:00 -4°C° 0.1 mm 1 mps 620 mmHg 88%
    07:00 -4°C° 0.1 mm 1 mps 620 mmHg 92%
    08:00 -5°C° 0.5 mm 2 mps 621 mmHg 92%
    09:00 -3°C° 0.5 mm 2 mps 622 mmHg 91%
    10:00 -2°C° 0.5 mm 3 mps 623 mmHg 91%
    11:00 -2°C° 0.4 mm 3 mps 623 mmHg 90%
    12:00 -2°C° 0.4 mm 3 mps 623 mmHg 88%
    13:00 -2°C° 0.4 mm 3 mps 623 mmHg 87%
    14:00 -4°C° 0.2 mm 3 mps 623 mmHg 87%
    15:00 -4°C° 0.2 mm 3 mps 623 mmHg 88%
    16:00 -4°C° 0.2 mm 2 mps 623 mmHg 88%
    17:00 -5°C° 0.1 mm 2 mps 622 mmHg 91%
    18:00 -7°C° 0.1 mm 2 mps 622 mmHg 93%
    19:00 -8°C° 0.1 mm 1 mps 621 mmHg 96%
    20:00 -9°C° 0 mm 1 mps 621 mmHg 94%
    21:00 -9°C° 0 mm 1 mps 621 mmHg 93%
    22:00 -10°C° 0 mm 1 mps 621 mmHg 92%
    23:00 -10°C° 0 mm 1 mps 621 mmHg 87%
    Show more